Flag for United Kingdom Weather past 2 weeks in Preston, England, United Kingdom

Now
52 °F

Sprinkles. Scattered clouds.


Feels Like: 51 °F
Forecast: 44 / 63 °F
Wind: 5 mph from East

Location: Blackpool Airport


UV Index: 0 (Low)

Visibility: N/A


Pressure: 30.04 "Hg

Humidity: 88%

Dew point: 48 °F

Location of PrestonLocation

Historic Weather in Preston

°F

Preston temperature yesterday

Maximum temperature yesterday: 57 °F (at 12:20 PM)
Minimum temperature yesterday: 50 °F (at 8:50 PM)
Average temperature yesterday: 54 °F

Past Weeks' High & Low Weather Summary

 TemperatureHumidityPressure
High66 °F (Apr 21, 1:50 PM)100% (Apr 23, 5:50 AM)30.45 "Hg (Apr 23, 5:50 AM)
Low36 °F (Apr 18, 6:20 AM)36% (Apr 15, 5:50 PM)29.71 "Hg (Apr 22, 12:20 PM)
Average52 °F76%30.10 "Hg
* Reported Apr 8 9:20 PM — Apr 23 8:20 PM, Preston, Weather by CustomWeather, © 2014

Note: Actual official high and low records may vary slightly from our data, if they occured in-between our weather recording intervals... More about our weather records

Advertising

Historic Weather Conditions — Data for Previous 24 hours

 ConditionsComfort  
Time TempWeatherWind HumidityBarometerVisibility
8:20 PM
Apr 23
52 °FScattered clouds.6 mph82%30.01 "HgN/A
7:50 PM52 °FScattered clouds.5 mph82%30.01 "HgN/A
7:20 PM52 °FScattered clouds.5 mph88%30.01 "HgN/A
6:50 PM52 °FScattered clouds.7 mph88%30.01 "HgN/A
6:20 PM52 °FPartly sunny.10 mph88%29.98 "HgN/A
5:50 PM54 °FSprinkles. Partly sunny.20 mph82%29.98 "HgN/A
5:20 PM57 °FPartly sunny.17 mph77%29.95 "HgN/A
4:50 PM59 °FScattered clouds.17 mph77%29.95 "HgN/A
4:20 PM59 °FBroken clouds.17 mph72%29.95 "HgN/A
3:50 PM59 °FBroken clouds.17 mph72%29.95 "HgN/A
3:20 PM57 °FBroken clouds.12 mph82%29.95 "HgN/A
2:50 PM57 °FSprinkles. Scattered clouds.10 mph82%29.95 "HgN/A
2:20 PM57 °FScattered clouds.13 mph82%29.95 "HgN/A
1:50 PM57 °FPassing clouds.14 mph82%29.95 "HgN/A
1:20 PM57 °FPassing clouds.15 mph82%29.95 "HgN/A
12:50 PM59 °FSprinkles. Passing clouds.18 mph72%29.98 "HgN/A
11:50 AM55 °FSprinkles. Passing clouds.16 mph82%29.95 "HgN/A
11:20 AM55 °FPassing clouds.15 mph82%29.95 "HgN/A
10:50 AM55 °FPassing clouds.13 mph82%29.95 "HgN/A
10:20 AM54 °FPassing clouds.16 mph88%29.95 "HgN/A
9:50 AM54 °FPassing clouds.15 mph82%29.95 "HgN/A
9:20 AM54 °FPassing clouds.16 mph88%29.95 "HgN/A
8:20 AM52 °FSunny.14 mph94%29.95 "Hg10 mi
7:50 AM50 °FPassing clouds.14 mph94%29.92 "HgN/A
7:20 AM50 °FPassing clouds.12 mph94%29.92 "HgN/A
6:50 AM48 °FPassing clouds.8 mph94%29.92 "HgN/A
6:20 AM48 °FPassing clouds.10 mph94%29.89 "HgN/A
5:50 AM48 °FClear.12 mph100%29.89 "Hg10 mi
Weather by CustomWeather, © 2014

See weather overview